Time,TemperatureF,DewpointF,PressureIn,WindDirection,WindDirectionDegrees,WindSpeedMPH,WindSpeedGustMPH,Humidity,HourlyPrecipIn,Conditions,Clouds,dailyrainin,SoftwareType,DateUTC
2013-11-06 00:00:00,33.2,29.5,30.50,South,175,0.0,0.0,86,0.00,,,0.00,Wunderground v.1.15,2013-11-06 05:00:00,
2013-11-06 00:05:00,33.2,29.5,30.50,South,175,0.0,0.0,86,0.00,,,0.00,Wunderground v.1.15,2013-11-06 05:05:00,
2013-11-06 00:10:00,33.3,29.6,30.50,South,175,0.0,0.0,86,0.00,,,0.00,Wunderground v.1.15,2013-11-06 05:10:00,
2013-11-06 00:15:00,33.6,29.9,30.50,South,175,0.0,0.0,86,0.00,,,0.00,Wunderground v.1.15,2013-11-06 05:15:00,
2013-11-06 00:20:00,33.7,30.0,30.49,South,175,0.0,0.0,86,0.00,,,0.00,Wunderground v.1.15,2013-11-06 05:20:00,
2013-11-06 00:25:00,33.8,29.8,30.49,South,175,0.0,0.0,85,0.00,,,0.00,Wunderground v.1.15,2013-11-06 05:25:00,
2013-11-06 00:30:00,33.9,30.2,30.49,South,175,0.0,0.0,86,0.00,,,0.00,Wunderground v.1.15,2013-11-06 05:30:00,
2013-11-06 00:35:00,34.0,30.0,30.49,South,175,0.0,0.0,85,0.00,,,0.00,Wunderground v.1.15,2013-11-06 05:35:00,
2013-11-06 00:40:00,34.1,30.1,30.48,South,175,0.0,0.0,85,0.00,,,0.00,Wunderground v.1.15,2013-11-06 05:40:00,
2013-11-06 00:45:00,33.9,30.2,30.48,South,175,0.0,0.0,86,0.00,,,0.00,Wunderground v.1.15,2013-11-06 05:45:00,
2013-11-06 00:55:00,34.2,30.4,30.48,South,175,0.0,0.0,86,0.00,,,0.00,Wunderground v.1.15,2013-11-06 05:55:00,
2013-11-06 01:00:00,34.2,30.4,30.47,South,175,0.0,0.0,86,0.00,,,0.00,Wunderground v.1.15,2013-11-06 06:00:00,
2013-11-06 01:05:00,34.4,30.4,30.47,South,175,0.0,0.0,85,0.00,,,0.00,Wunderground v.1.15,2013-11-06 06:05:00,
2013-11-06 01:10:00,34.4,30.4,30.47,South,175,0.0,0.0,85,0.00,,,0.00,Wunderground v.1.15,2013-11-06 06:10:00,
2013-11-06 01:15:00,34.0,29.7,30.48,South,175,0.0,0.0,84,0.00,,,0.00,Wunderground v.1.15,2013-11-06 06:15:00,
2013-11-06 01:20:00,33.7,29.4,30.48,South,175,0.0,0.0,84,0.00,,,0.00,Wunderground v.1.15,2013-11-06 06:20:00,
2013-11-06 01:25:00,33.4,29.1,30.48,South,175,0.0,0.0,84,0.00,,,0.00,Wunderground v.1.15,2013-11-06 06:25:00,
2013-11-06 01:35:00,32.6,28.3,30.48,South,175,0.0,0.0,84,0.00,,,0.00,Wunderground v.1.15,2013-11-06 06:35:00,
2013-11-06 01:40:00,32.4,28.4,30.47,South,175,0.0,0.0,85,0.00,,,0.00,Wunderground v.1.15,2013-11-06 06:40:00,
2013-11-06 01:45:00,32.4,28.4,30.47,South,175,0.0,0.0,85,0.00,,,0.00,Wunderground v.1.15,2013-11-06 06:45:00,
2013-11-06 01:50:00,32.0,28.0,30.47,South,175,0.0,0.0,85,0.00,,,0.00,Wunderground v.1.15,2013-11-06 06:50:00,
2013-11-06 01:55:00,31.9,28.2,30.47,South,175,0.0,0.0,86,0.00,,,0.00,Wunderground v.1.15,2013-11-06 06:55:00,
2013-11-06 02:05:00,31.2,27.2,30.47,South,175,0.0,0.0,85,0.00,,,0.00,Wunderground v.1.15,2013-11-06 07:05:00,
2013-11-06 02:10:00,30.7,27.0,30.47,South,175,0.0,0.0,86,0.00,,,0.00,Wunderground v.1.15,2013-11-06 07:10:00,
2013-11-06 02:15:00,30.5,26.5,30.47,South,175,0.0,0.0,85,0.00,,,0.00,Wunderground v.1.15,2013-11-06 07:15:00,
2013-11-06 02:20:00,30.0,26.6,30.47,South,175,0.0,0.0,87,0.00,,,0.00,Wunderground v.1.15,2013-11-06 07:20:00,
2013-11-06 02:25:00,29.8,26.4,30.47,South,175,0.0,0.0,87,0.00,,,0.00,Wunderground v.1.15,2013-11-06 07:25:00,
2013-11-06 02:30:00,29.8,26.4,30.47,South,175,0.0,0.0,87,0.00,,,0.00,Wunderground v.1.15,2013-11-06 07:30:00,
2013-11-06 02:35:00,29.7,26.3,30.46,South,175,0.0,0.0,87,0.00,,,0.00,Wunderground v.1.15,2013-11-06 07:35:00,
2013-11-06 02:40:00,29.4,26.0,30.46,South,175,0.0,0.0,87,0.00,,,0.00,Wunderground v.1.15,2013-11-06 07:40:00,
2013-11-06 02:45:00,29.3,26.2,30.45,South,175,0.0,0.0,88,0.00,,,0.00,Wunderground v.1.15,2013-11-06 07:45:00,
2013-11-06 02:50:00,29.1,26.0,30.45,South,175,0.0,0.0,88,0.00,,,0.00,Wunderground v.1.15,2013-11-06 07:50:00,
2013-11-06 02:55:00,29.0,26.2,30.45,South,175,0.0,0.0,89,0.00,,,0.00,Wunderground v.1.15,2013-11-06 07:55:00,
2013-11-06 03:00:00,28.8,25.7,30.45,South,175,0.0,0.0,88,0.00,,,0.00,Wunderground v.1.15,2013-11-06 08:00:00,
2013-11-06 03:05:00,28.6,25.5,30.45,South,175,0.0,0.0,88,0.00,,,0.00,Wunderground v.1.15,2013-11-06 08:05:00,
2013-11-06 03:10:00,28.6,25.5,30.45,South,175,0.0,0.0,88,0.00,,,0.00,Wunderground v.1.15,2013-11-06 08:10:00,
2013-11-06 03:15:00,28.5,25.4,30.45,South,175,0.0,0.0,88,0.00,,,0.00,Wunderground v.1.15,2013-11-06 08:15:00,
2013-11-06 03:20:00,28.4,25.6,30.45,South,175,0.0,1.0,89,0.00,,,0.00,Wunderground v.1.15,2013-11-06 08:20:00,
2013-11-06 03:30:00,28.2,25.4,30.45,South,175,0.0,0.0,89,0.00,,,0.00,Wunderground v.1.15,2013-11-06 08:30:00,
2013-11-06 03:45:00,27.9,25.1,30.45,South,175,0.0,0.0,89,0.00,,,0.00,Wunderground v.1.15,2013-11-06 08:45:00,
2013-11-06 03:50:00,27.9,25.3,30.45,South,175,0.0,0.0,90,0.00,,,0.00,Wunderground v.1.15,2013-11-06 08:50:00,
2013-11-06 03:55:00,27.9,25.3,30.45,South,175,0.0,0.0,90,0.00,,,0.00,Wunderground v.1.15,2013-11-06 08:55:00,
2013-11-06 04:05:00,27.7,24.9,30.44,South,175,0.0,0.0,89,0.00,,,0.00,Wunderground v.1.15,2013-11-06 09:05:00,
2013-11-06 04:10:00,27.6,24.8,30.44,South,175,0.0,0.0,89,0.00,,,0.00,Wunderground v.1.15,2013-11-06 09:10:00,
2013-11-06 04:15:00,27.7,24.9,30.44,South,175,0.0,0.0,89,0.00,,,0.00,Wunderground v.1.15,2013-11-06 09:15:00,
2013-11-06 04:20:00,27.6,25.1,30.43,South,175,0.0,0.0,90,0.00,,,0.00,Wunderground v.1.15,2013-11-06 09:20:00,
2013-11-06 04:25:00,27.6,25.1,30.44,South,175,0.0,0.0,90,0.00,,,0.00,Wunderground v.1.15,2013-11-06 09:25:00,
2013-11-06 04:30:00,27.6,25.1,30.44,South,175,0.0,0.0,90,0.00,,,0.00,Wunderground v.1.15,2013-11-06 09:30:00,
2013-11-06 04:35:00,27.6,24.8,30.43,South,175,0.0,0.0,89,0.00,,,0.00,Wunderground v.1.15,2013-11-06 09:35:00,
2013-11-06 04:40:00,27.5,25.0,30.43,South,175,0.0,1.0,90,0.00,,,0.00,Wunderground v.1.15,2013-11-06 09:40:00,
2013-11-06 04:50:00,27.5,25.0,30.43,South,175,0.0,0.0,90,0.00,,,0.00,Wunderground v.1.15,2013-11-06 09:50:00,
2013-11-06 04:55:00,27.4,24.9,30.42,South,175,0.0,0.0,90,0.00,,,0.00,Wunderground v.1.15,2013-11-06 09:55:00,
2013-11-06 05:00:00,27.4,24.9,30.42,South,175,0.0,0.0,90,0.00,,,0.00,Wunderground v.1.15,2013-11-06 10:00:00,
2013-11-06 05:05:00,27.2,24.7,30.42,South,175,0.0,0.0,90,0.00,,,0.00,Wunderground v.1.15,2013-11-06 10:05:00,
2013-11-06 05:10:00,27.3,24.8,30.43,South,175,0.0,0.0,90,0.00,,,0.00,Wunderground v.1.15,2013-11-06 10:10:00,
2013-11-06 05:15:00,27.5,25.2,30.43,South,175,0.0,0.0,91,0.00,,,0.00,Wunderground v.1.15,2013-11-06 10:15:00,
2013-11-06 05:20:00,27.6,25.3,30.43,South,175,0.0,0.0,91,0.00,,,0.00,Wunderground v.1.15,2013-11-06 10:20:00,
2013-11-06 05:25:00,27.6,25.3,30.43,South,175,0.0,1.0,91,0.00,,,0.00,Wunderground v.1.15,2013-11-06 10:25:00,
2013-11-06 05:30:00,27.6,25.3,30.43,South,175,0.0,0.0,91,0.00,,,0.00,Wunderground v.1.15,2013-11-06 10:30:00,
2013-11-06 05:35:00,27.6,25.3,30.43,South,175,0.0,0.0,91,0.00,,,0.00,Wunderground v.1.15,2013-11-06 10:35:00,
2013-11-06 05:40:00,27.4,25.1,30.42,South,175,0.0,0.0,91,0.00,,,0.00,Wunderground v.1.15,2013-11-06 10:40:00,
2013-11-06 05:45:00,27.6,25.3,30.42,South,175,0.0,0.0,91,0.00,,,0.00,Wunderground v.1.15,2013-11-06 10:45:00,
2013-11-06 05:50:00,27.8,25.5,30.42,South,175,0.0,0.0,91,0.00,,,0.00,Wunderground v.1.15,2013-11-06 10:50:00,
2013-11-06 05:55:00,28.0,25.7,30.42,South,175,0.0,0.0,91,0.00,,,0.00,Wunderground v.1.15,2013-11-06 10:55:00,
2013-11-06 06:00:00,28.1,25.8,30.41,South,175,0.0,0.0,91,0.00,,,0.00,Wunderground v.1.15,2013-11-06 11:00:00,
2013-11-06 06:05:00,28.3,26.3,30.40,South,175,0.0,0.0,92,0.00,,,0.00,Wunderground v.1.15,2013-11-06 11:05:00,
2013-11-06 06:15:00,28.4,26.4,30.41,South,175,0.0,0.0,92,0.00,,,0.00,Wunderground v.1.15,2013-11-06 11:15:00,
2013-11-06 06:20:00,28.7,26.4,30.41,South,175,0.0,0.0,91,0.00,,,0.00,Wunderground v.1.15,2013-11-06 11:20:00,
2013-11-06 06:25:00,28.9,26.6,30.41,South,175,0.0,0.0,91,0.00,,,0.00,Wunderground v.1.15,2013-11-06 11:25:00,
2013-11-06 06:35:00,29.3,27.0,30.41,South,175,0.0,0.0,91,0.00,,,0.00,Wunderground v.1.15,2013-11-06 11:35:00,
2013-11-06 06:40:00,29.5,27.2,30.40,South,175,0.0,0.0,91,0.00,,,0.00,Wunderground v.1.15,2013-11-06 11:40:00,
2013-11-06 06:50:00,29.8,27.5,30.40,South,175,0.0,0.0,91,0.00,,,0.00,Wunderground v.1.15,2013-11-06 11:50:00,
2013-11-06 06:55:00,29.9,27.6,30.39,South,175,0.0,0.0,91,0.00,,,0.00,Wunderground v.1.15,2013-11-06 11:55:00,
2013-11-06 07:00:00,29.9,27.6,30.40,South,175,0.0,0.0,91,0.00,,,0.00,Wunderground v.1.15,2013-11-06 12:00:00,
2013-11-06 07:05:00,30.1,27.8,30.40,South,175,0.0,0.0,91,0.00,,,0.00,Wunderground v.1.15,2013-11-06 12:05:00,
2013-11-06 07:10:00,30.2,27.9,30.40,South,175,0.0,0.0,91,0.00,,,0.00,Wunderground v.1.15,2013-11-06 12:10:00,
2013-11-06 07:15:00,30.5,28.2,30.39,South,175,0.0,0.0,91,0.00,,,0.00,Wunderground v.1.15,2013-11-06 12:15:00,
2013-11-06 07:20:00,30.6,28.3,30.39,South,175,0.0,0.0,91,0.00,,,0.00,Wunderground v.1.15,2013-11-06 12:20:00,
2013-11-06 07:25:00,30.8,28.5,30.40,South,175,0.0,0.0,91,0.00,,,0.00,Wunderground v.1.15,2013-11-06 12:25:00,
2013-11-06 07:30:00,31.1,28.8,30.39,South,175,0.0,0.0,91,0.00,,,0.00,Wunderground v.1.15,2013-11-06 12:30:00,
2013-11-06 07:35:00,31.4,29.3,30.40,South,175,0.0,0.0,92,0.00,,,0.00,Wunderground v.1.15,2013-11-06 12:35:00,
2013-11-06 07:40:00,31.7,29.6,30.39,South,175,0.0,0.0,92,0.00,,,0.00,Wunderground v.1.15,2013-11-06 12:40:00,
2013-11-06 07:45:00,32.0,29.9,30.39,South,175,0.0,0.0,92,0.00,,,0.00,Wunderground v.1.15,2013-11-06 12:45:00,
2013-11-06 07:55:00,32.5,30.2,30.39,South,175,0.0,0.0,91,0.00,,,0.00,Wunderground v.1.15,2013-11-06 12:55:00,
2013-11-06 08:05:00,33.2,31.1,30.38,South,175,0.0,0.0,92,0.00,,,0.00,Wunderground v.1.15,2013-11-06 13:05:00,
2013-11-06 08:10:00,33.8,31.5,30.38,South,175,0.0,0.0,91,0.00,,,0.00,Wunderground v.1.15,2013-11-06 13:10:00,
2013-11-06 08:15:00,34.1,31.5,30.38,South,175,0.0,0.0,90,0.00,,,0.00,Wunderground v.1.15,2013-11-06 13:15:00,
2013-11-06 08:25:00,35.0,32.1,30.38,South,175,0.0,0.0,89,0.00,,,0.00,Wunderground v.1.15,2013-11-06 13:25:00,
2013-11-06 08:35:00,36.1,32.9,30.37,South,175,0.0,0.0,88,0.00,,,0.00,Wunderground v.1.15,2013-11-06 13:35:00,
2013-11-06 08:40:00,36.7,32.9,30.36,South,175,0.0,0.0,86,0.00,,,0.00,Wunderground v.1.15,2013-11-06 13:40:00,
2013-11-06 08:45:00,37.0,33.2,30.35,South,175,1.0,1.0,86,0.00,,,0.00,Wunderground v.1.15,2013-11-06 13:45:00,
2013-11-06 08:50:00,37.0,32.9,30.35,East,85,1.0,1.0,85,0.00,,,0.00,Wunderground v.1.15,2013-11-06 13:50:00,
2013-11-06 08:55:00,37.2,33.1,30.35,East,85,1.0,1.0,85,0.00,,,0.00,Wunderground v.1.15,2013-11-06 13:55:00,
2013-11-06 09:05:00,37.0,32.9,30.34,East,85,0.0,0.0,85,0.00,,,0.00,Wunderground v.1.15,2013-11-06 14:05:00,
2013-11-06 09:10:00,37.2,33.1,30.34,East,85,0.0,0.0,85,0.00,,,0.00,Wunderground v.1.15,2013-11-06 14:10:00,
2013-11-06 09:15:00,37.5,33.4,30.33,East,85,0.0,0.0,85,0.00,,,0.00,Wunderground v.1.15,2013-11-06 14:15:00,
2013-11-06 09:20:00,37.8,33.7,30.33,SSE,163,2.0,4.0,85,0.00,,,0.00,Wunderground v.1.15,2013-11-06 14:20:00,
2013-11-06 09:25:00,38.0,33.9,30.33,SSE,156,3.0,4.0,85,0.00,,,0.00,Wunderground v.1.15,2013-11-06 14:25:00,
2013-11-06 09:30:00,38.1,33.7,30.33,SE,146,4.0,5.0,84,0.00,,,0.00,Wunderground v.1.15,2013-11-06 14:30:00,
2013-11-06 09:35:00,38.1,33.7,30.32,SSE,168,4.0,5.0,84,0.00,,,0.00,Wunderground v.1.15,2013-11-06 14:35:00,
2013-11-06 09:40:00,38.3,33.9,30.32,SSE,150,3.0,5.0,84,0.00,,,0.00,Wunderground v.1.15,2013-11-06 14:40:00,
2013-11-06 09:50:00,39.0,34.6,30.32,SSE,151,4.0,4.0,84,0.00,,,0.00,Wunderground v.1.15,2013-11-06 14:50:00,
2013-11-06 09:55:00,39.6,35.2,30.31,SE,146,4.0,4.0,84,0.00,,,0.00,Wunderground v.1.15,2013-11-06 14:55:00,
2013-11-06 10:00:00,40.6,35.5,30.31,SSE,150,3.0,3.0,82,0.00,,,0.00,Wunderground v.1.15,2013-11-06 15:00:00,
2013-11-06 10:05:00,41.4,36.0,30.31,East,100,4.0,4.0,81,0.00,,,0.00,Wunderground v.1.15,2013-11-06 15:05:00,
2013-11-06 10:10:00,42.4,36.3,30.31,SE,128,4.0,4.0,79,0.00,,,0.00,Wunderground v.1.15,2013-11-06 15:10:00,
2013-11-06 10:15:00,42.5,36.1,30.30,SE,132,4.0,4.0,78,0.00,,,0.00,Wunderground v.1.15,2013-11-06 15:15:00,
2013-11-06 10:20:00,42.7,36.3,30.30,SSE,150,5.0,5.0,78,0.00,,,0.00,Wunderground v.1.15,2013-11-06 15:20:00,
2013-11-06 10:25:00,43.3,36.6,30.30,SSE,153,4.0,5.0,77,0.00,,,0.00,Wunderground v.1.15,2013-11-06 15:25:00,
2013-11-06 10:30:00,42.9,36.2,30.29,SSE,155,5.0,6.0,77,0.00,,,0.00,Wunderground v.1.15,2013-11-06 15:30:00,
2013-11-06 10:35:00,42.9,36.2,30.29,SSE,148,7.0,7.0,77,0.00,,,0.00,Wunderground v.1.15,2013-11-06 15:35:00,
2013-11-06 10:40:00,43.5,37.1,30.28,ESE,110,6.0,6.0,78,0.00,,,0.00,Wunderground v.1.15,2013-11-06 15:40:00,
2013-11-06 10:50:00,44.6,37.5,30.27,SSE,163,5.0,5.0,76,0.00,,,0.00,Wunderground v.1.15,2013-11-06 15:50:00,
2013-11-06 10:55:00,45.4,38.3,30.27,SE,146,6.0,7.0,76,0.00,,,0.00,Wunderground v.1.15,2013-11-06 15:55:00,
2013-11-06 11:20:00,47.6,39.0,30.25,SSE,148,8.0,8.0,72,0.00,,,0.00,Wunderground v.1.15,2013-11-06 16:20:00,
2013-11-06 11:25:00,47.9,38.9,30.25,SSE,158,8.0,10.0,71,0.00,,,0.00,Wunderground v.1.15,2013-11-06 16:25:00,
2013-11-06 11:35:00,48.4,39.1,30.24,ENE,71,8.0,10.0,70,0.00,,,0.00,Wunderground v.1.15,2013-11-06 16:35:00,
2013-11-06 11:40:00,48.8,39.4,30.24,SSE,147,7.0,10.0,70,0.00,,,0.00,Wunderground v.1.15,2013-11-06 16:40:00,
2013-11-06 11:45:00,48.6,39.3,30.23,SSE,149,7.0,7.0,70,0.00,,,0.00,Wunderground v.1.15,2013-11-06 16:45:00,
2013-11-06 11:50:00,49.1,39.7,30.23,South,180,6.0,9.0,70,0.00,,,0.00,Wunderground v.1.15,2013-11-06 16:50:00,
2013-11-06 11:55:00,49.1,39.7,30.22,ESE,121,5.0,5.0,70,0.00,,,0.00,Wunderground v.1.15,2013-11-06 16:55:00,
2013-11-06 12:05:00,49.1,40.1,30.22,SSE,148,7.0,7.0,71,0.00,,,0.00,Wunderground v.1.15,2013-11-06 17:05:00,
2013-11-06 12:10:00,49.4,39.7,30.22,SE,135,6.0,6.0,69,0.00,,,0.00,Wunderground v.1.15,2013-11-06 17:10:00,
2013-11-06 12:20:00,50.0,40.2,30.21,ESE,116,4.0,4.0,69,0.00,,,0.00,Wunderground v.1.15,2013-11-06 17:20:00,
2013-11-06 12:30:00,50.6,40.0,30.20,SSE,161,7.0,7.0,67,0.00,,,0.00,Wunderground v.1.15,2013-11-06 17:30:00,
2013-11-06 12:35:00,50.8,40.2,30.19,SE,137,7.0,7.0,67,0.00,,,0.00,Wunderground v.1.15,2013-11-06 17:35:00,
2013-11-06 12:40:00,51.3,40.7,30.19,East,85,6.0,6.0,67,0.00,,,0.00,Wunderground v.1.15,2013-11-06 17:40:00,
2013-11-06 12:45:00,51.8,40.8,30.19,SE,125,5.0,6.0,66,0.00,,,0.00,Wunderground v.1.15,2013-11-06 17:45:00,
2013-11-06 12:50:00,51.9,41.3,30.19,NE,49,5.0,6.0,67,0.00,,,0.00,Wunderground v.1.15,2013-11-06 17:50:00,
2013-11-06 12:55:00,52.1,41.1,30.18,SE,131,4.0,6.0,66,0.00,,,0.00,Wunderground v.1.15,2013-11-06 17:55:00,
2013-11-06 13:05:00,51.5,40.9,30.18,East,82,5.0,6.0,67,0.00,,,0.00,Wunderground v.1.15,2013-11-06 18:05:00,
2013-11-06 13:15:00,51.8,41.2,30.18,SE,126,5.0,6.0,67,0.00,,,0.00,Wunderground v.1.15,2013-11-06 18:15:00,
2013-11-06 13:30:00,52.1,41.5,30.16,ESE,109,5.0,5.0,67,0.00,,,0.00,Wunderground v.1.15,2013-11-06 18:30:00,
2013-11-06 13:35:00,52.2,41.2,30.16,SE,146,4.0,12.0,66,0.00,,,0.00,Wunderground v.1.15,2013-11-06 18:35:00,
2013-11-06 13:40:00,52.2,40.8,30.17,SE,134,6.0,6.0,65,0.00,,,0.00,Wunderground v.1.15,2013-11-06 18:40:00,
2013-11-06 13:45:00,52.3,41.3,30.16,SSE,163,7.0,7.0,66,0.00,,,0.00,Wunderground v.1.15,2013-11-06 18:45:00,
2013-11-06 13:50:00,52.1,41.1,30.16,South,178,7.0,7.0,66,0.00,,,0.00,Wunderground v.1.15,2013-11-06 18:50:00,
2013-11-06 14:05:00,52.3,41.3,30.15,SE,138,4.0,7.0,66,0.00,,,0.00,Wunderground v.1.15,2013-11-06 19:05:00,
2013-11-06 14:10:00,52.2,41.2,30.15,SE,139,5.0,7.0,66,0.00,,,0.00,Wunderground v.1.15,2013-11-06 19:10:00,
2013-11-06 14:15:00,52.1,41.1,30.15,SSE,155,7.0,16.0,66,0.00,,,0.00,Wunderground v.1.15,2013-11-06 19:15:00,
2013-11-06 14:20:00,52.1,41.5,30.15,SE,146,8.0,8.0,67,0.00,,,0.00,Wunderground v.1.15,2013-11-06 19:20:00,
2013-11-06 14:30:00,52.3,41.3,30.14,SE,140,3.0,6.0,66,0.00,,,0.00,Wunderground v.1.15,2013-11-06 19:30:00,
2013-11-06 14:40:00,52.8,41.0,30.14,SE,141,5.0,6.0,64,0.00,,,0.00,Wunderground v.1.15,2013-11-06 19:40:00,
2013-11-06 14:50:00,53.2,41.3,30.14,SSE,156,8.0,8.0,64,0.00,,,0.00,Wunderground v.1.15,2013-11-06 19:50:00,
2013-11-06 14:55:00,53.7,41.8,30.14,ESE,107,6.0,8.0,64,0.00,,,0.00,Wunderground v.1.15,2013-11-06 19:55:00,
2013-11-06 15:00:00,53.7,41.8,30.14,SE,145,4.0,4.0,64,0.00,,,0.00,Wunderground v.1.15,2013-11-06 20:00:00,
2013-11-06 15:05:00,53.5,41.6,30.13,SSE,155,5.0,10.0,64,0.00,,,0.00,Wunderground v.1.15,2013-11-06 20:05:00,
2013-11-06 15:10:00,53.2,41.7,30.13,SSE,155,6.0,6.0,65,0.00,,,0.00,Wunderground v.1.15,2013-11-06 20:10:00,
2013-11-06 15:15:00,53.1,42.0,30.13,SSE,151,6.0,10.0,66,0.00,,,0.00,Wunderground v.1.15,2013-11-06 20:15:00,
2013-11-06 15:20:00,52.9,41.8,30.13,SE,133,6.0,6.0,66,0.00,,,0.00,Wunderground v.1.15,2013-11-06 20:20:00,
2013-11-06 15:30:00,52.5,41.9,30.12,SE,146,4.0,4.0,67,0.00,,,0.00,Wunderground v.1.15,2013-11-06 20:30:00,
2013-11-06 15:35:00,52.2,41.6,30.12,ESE,116,3.0,4.0,67,0.00,,,0.00,Wunderground v.1.15,2013-11-06 20:35:00,
2013-11-06 15:40:00,51.8,41.2,30.13,SSE,161,4.0,12.0,67,0.00,,,0.00,Wunderground v.1.15,2013-11-06 20:40:00,
2013-11-06 15:45:00,51.9,41.3,30.13,SE,138,6.0,12.0,67,0.00,,,0.00,Wunderground v.1.15,2013-11-06 20:45:00,
2013-11-06 15:50:00,51.9,41.7,30.12,SSW,194,7.0,7.0,68,0.00,,,0.00,Wunderground v.1.15,2013-11-06 20:50:00,
2013-11-06 15:55:00,51.8,41.6,30.12,SE,141,5.0,7.0,68,0.00,,,0.00,Wunderground v.1.15,2013-11-06 20:55:00,
2013-11-06 16:00:00,51.7,41.5,30.12,SSE,155,6.0,9.0,68,0.00,,,0.00,Wunderground v.1.15,2013-11-06 21:00:00,
2013-11-06 16:05:00,51.7,41.9,30.12,SE,144,6.0,9.0,69,0.00,,,0.00,Wunderground v.1.15,2013-11-06 21:05:00,
2013-11-06 16:10:00,51.6,41.8,30.11,SSE,148,7.0,7.0,69,0.00,,,0.00,Wunderground v.1.15,2013-11-06 21:10:00,
2013-11-06 16:15:00,51.6,41.8,30.12,SSE,147,6.0,7.0,69,0.00,,,0.00,Wunderground v.1.15,2013-11-06 21:15:00,
2013-11-06 16:25:00,51.3,41.8,30.11,SE,138,5.0,7.0,70,0.00,,,0.00,Wunderground v.1.15,2013-11-06 21:25:00,
2013-11-06 16:30:00,51.2,42.1,30.12,SSW,196,4.0,5.0,71,0.00,,,0.00,Wunderground v.1.15,2013-11-06 21:30:00,
2013-11-06 16:40:00,51.0,41.9,30.12,SSE,161,3.0,3.0,71,0.00,,,0.00,Wunderground v.1.15,2013-11-06 21:40:00,
2013-11-06 16:50:00,50.9,42.2,30.10,ENE,65,2.0,2.0,72,0.00,,,0.00,Wunderground v.1.15,2013-11-06 21:50:00,
2013-11-06 17:05:00,50.6,42.3,30.09,SSE,151,3.0,4.0,73,0.00,,,0.00,Wunderground v.1.15,2013-11-06 22:05:00,
2013-11-06 17:10:00,50.6,42.3,30.09,SSE,155,1.0,4.0,73,0.00,,,0.00,Wunderground v.1.15,2013-11-06 22:10:00,
2013-11-06 17:15:00,50.4,42.1,30.10,SE,138,2.0,4.0,73,0.00,,,0.00,Wunderground v.1.15,2013-11-06 22:15:00,
2013-11-06 17:20:00,50.4,42.4,30.10,SE,128,3.0,4.0,74,0.00,,,0.00,Wunderground v.1.15,2013-11-06 22:20:00,
2013-11-06 17:30:00,50.4,42.4,30.09,SE,146,1.0,1.0,74,0.00,,,0.00,Wunderground v.1.15,2013-11-06 22:30:00,
2013-11-06 17:35:00,50.4,42.4,30.09,ESE,119,1.0,2.0,74,0.00,,,0.00,Wunderground v.1.15,2013-11-06 22:35:00,
2013-11-06 17:40:00,50.2,42.2,30.09,ESE,118,1.0,1.0,74,0.00,,,0.00,Wunderground v.1.15,2013-11-06 22:40:00,
2013-11-06 17:45:00,50.3,42.3,30.09,ESE,118,1.0,1.0,74,0.00,,,0.00,Wunderground v.1.15,2013-11-06 22:45:00,
2013-11-06 17:50:00,50.3,42.3,30.09,ESE,118,0.0,0.0,74,0.00,,,0.00,Wunderground v.1.15,2013-11-06 22:50:00,
2013-11-06 17:55:00,50.1,42.1,30.09,ESE,109,1.0,1.0,74,0.00,,,0.00,Wunderground v.1.15,2013-11-06 22:55:00,
2013-11-06 18:00:00,50.0,42.0,30.08,ESE,109,1.0,2.0,74,0.00,,,0.00,Wunderground v.1.15,2013-11-06 23:00:00,
2013-11-06 18:05:00,49.8,42.2,30.07,NE,44,1.0,2.0,75,0.00,,,0.00,Wunderground v.1.15,2013-11-06 23:05:00,
2013-11-06 18:10:00,49.7,42.1,30.07,East,101,2.0,2.0,75,0.00,,,0.00,Wunderground v.1.15,2013-11-06 23:10:00,
2013-11-06 18:15:00,49.5,42.2,30.08,SSE,161,2.0,3.0,76,0.00,,,0.00,Wunderground v.1.15,2013-11-06 23:15:00,
2013-11-06 18:20:00,49.6,42.3,30.07,SSE,154,2.0,3.0,76,0.00,,,0.00,Wunderground v.1.15,2013-11-06 23:20:00,
2013-11-06 18:25:00,49.8,42.2,30.06,ENE,65,3.0,3.0,75,0.00,,,0.00,Wunderground v.1.15,2013-11-06 23:25:00,
2013-11-06 18:30:00,49.9,42.3,30.07,ENE,61,2.0,3.0,75,0.00,,,0.00,Wunderground v.1.15,2013-11-06 23:30:00,
2013-11-06 18:35:00,50.1,42.5,30.06,SE,129,1.0,1.0,75,0.00,,,0.00,Wunderground v.1.15,2013-11-06 23:35:00,
2013-11-06 18:40:00,50.2,42.6,30.06,West,279,2.0,2.0,75,0.00,,,0.00,Wunderground v.1.15,2013-11-06 23:40:00,
2013-11-06 18:45:00,50.1,42.5,30.06,SE,142,1.0,1.0,75,0.00,,,0.00,Wunderground v.1.15,2013-11-06 23:45:00,
2013-11-06 18:50:00,50.1,42.8,30.05,South,182,1.0,7.0,76,0.00,,,0.00,Wunderground v.1.15,2013-11-06 23:50:00,
2013-11-06 18:55:00,50.3,42.7,30.05,SE,124,3.0,8.0,75,0.00,,,0.00,Wunderground v.1.15,2013-11-06 23:55:00,
2013-11-06 19:00:00,50.3,42.7,30.04,ENE,76,4.0,5.0,75,0.00,,,0.00,Wunderground v.1.15,2013-11-07 00:00:00,
2013-11-06 19:05:00,50.3,42.7,30.04,SE,125,4.0,5.0,75,0.00,,,0.00,Wunderground v.1.15,2013-11-07 00:05:00,
2013-11-06 19:10:00,50.3,42.7,30.05,SE,142,4.0,4.0,75,0.00,,,0.00,Wunderground v.1.15,2013-11-07 00:10:00,
2013-11-06 19:45:00,50.4,42.8,30.02,SSE,161,7.0,7.0,75,0.00,,,0.00,Wunderground v.1.15,2013-11-07 00:45:00,
2013-11-06 20:00:00,50.3,42.7,30.01,SSE,150,9.0,9.0,75,0.00,,,0.00,Wunderground v.1.15,2013-11-07 01:00:00,
2013-11-06 20:10:00,50.4,42.4,30.01,NE,45,8.0,8.0,74,0.00,,,0.00,Wunderground v.1.15,2013-11-07 01:10:00,
2013-11-06 20:15:00,50.3,42.7,30.00,SSE,149,6.0,8.0,75,0.00,,,0.00,Wunderground v.1.15,2013-11-07 01:15:00,
2013-11-06 21:50:00,49.8,42.2,29.96,NE,35,4.0,4.0,75,0.00,,,0.00,Wunderground v.1.15,2013-11-07 02:50:00,
2013-11-06 21:55:00,49.7,42.1,29.96,East,83,3.0,4.0,75,0.00,,,0.00,Wunderground v.1.15,2013-11-07 02:55:00,
2013-11-06 22:10:00,49.7,42.4,29.95,East,98,2.0,3.0,76,0.00,,,0.00,Wunderground v.1.15,2013-11-07 03:10:00,
2013-11-06 22:20:00,49.5,42.2,29.94,SSE,153,2.0,8.0,76,0.00,,,0.00,Wunderground v.1.15,2013-11-07 03:20:00,
2013-11-06 22:30:00,49.4,42.5,29.93,ESE,102,2.0,9.0,77,0.00,,,0.00,Wunderground v.1.15,2013-11-07 03:30:00,
2013-11-06 22:35:00,49.4,42.5,29.93,NE,38,3.0,9.0,77,0.00,,,0.00,Wunderground v.1.15,2013-11-07 03:35:00,
2013-11-06 22:40:00,49.4,42.5,29.92,South,172,3.0,3.0,77,0.00,,,0.00,Wunderground v.1.15,2013-11-07 03:40:00,
2013-11-06 22:50:00,49.4,42.5,29.93,ESE,117,3.0,3.0,77,0.00,,,0.00,Wunderground v.1.15,2013-11-07 03:50:00,
2013-11-06 22:55:00,49.3,42.7,29.93,ESE,104,2.0,4.0,78,0.00,,,0.00,Wunderground v.1.15,2013-11-07 03:55:00,
2013-11-06 23:00:00,49.3,42.7,29.93,South,172,3.0,3.0,78,0.00,,,0.00,Wunderground v.1.15,2013-11-07 04:00:00,
2013-11-06 23:05:00,49.3,42.7,29.92,SE,139,1.0,3.0,78,0.00,,,0.00,Wunderground v.1.15,2013-11-07 04:05:00,
2013-11-06 23:15:00,49.2,42.6,29.92,SSW,200,2.0,5.0,78,0.00,,,0.00,Wunderground v.1.15,2013-11-07 04:15:00,
2013-11-06 23:30:00,49.1,42.5,29.91,NE,53,3.0,3.0,78,0.00,,,0.00,Wunderground v.1.15,2013-11-07 04:30:00,
2013-11-06 23:40:00,49.0,42.8,29.91,SE,136,2.0,2.0,79,0.00,,,0.00,Wunderground v.1.15,2013-11-07 04:40:00,
2013-11-06 23:50:00,49.0,42.8,29.91,NE,51,1.0,1.0,79,0.00,,,0.00,Wunderground v.1.15,2013-11-07 04:50:00,
2013-11-06 23:55:00,48.9,42.7,29.91,NE,52,1.0,1.0,79,0.00,,,0.00,Wunderground v.1.15,2013-11-07 04:55:00,